Location: Gombori
(14.9797°N, 2.9419°W)
Time: 06:02:16
(UTC+00:00)

Meteor 2-13 Rocket - Pass Details

Date: 03 December 2021
Orbit: 936 x 957 km, 82.5° (Epoch: 19 January)

Event Time Altitude Azimuth Distance (km) Brightness Sun altitude
Rises 04:28:49 0° 173° (S) 3,622 7.8 -26.7°
Reaches altitude 10° 04:31:22 10° 169° (S) 2,675 7.1 -26.1°
Maximum altitude 04:37:20 56° 93° (E) 1,123 5.1 -24.8°
Drops below altitude 10° 04:43:16 10° 16° (NNE) 2,665 6.8 -23.4°
Sets 04:45:47 0° 12° (NNE) 3,607 7.4 -22.8°
